STARLINK-11279 [DTC] (61206 NORAD) Tracking and Keplerian Element Data

This shows tracking and keplerian element data for the satellite.

Feedback or suggestion? Click here.




ElementValue
Catalog61206
NameSTARLINK-11279 [DTC]
Epoch Orbit382
Epoch Day286.7468223
Epoch Year2024
RAAN185.7453
Inclination53.1571
Eccentricity0.0001588
Argument of Perigee75.4133
Mean Anonmoly284.7064
Mean Motion15.7676456
Decay Rate0.00043951
L11 61206U 24171G 24286.74682230 .00043951 00000+0 27071-3 0 9995
L22 61206 53.1571 185.7453 0001588 75.4133 284.7064 15.76764560 3828



Live tracking and technical data element details for STARLINK-11279 [DTC] (NORAD 61206). STARLINK-11279 [DTC] can be tracked NOW for your location showing map with azimuth and elevation plus other details from your city location.







IsCatalogInMostPopularTable: catalog: 61206, numindb: 22
Update: records affected: 1



GetName: 61206 STARLINK-11279 [DTC]

Hit Count: updated at: Wed, 04 Dec 2024 10:33:58 GMT